Flag for Switzerland Weather past 2 weeks in Olten, Solothurn, Switzerland

Now
45 °F

Cool.


Feels Like: 43 °F
Forecast: 37 / 47 °F
Wind: 5 mph from Southwest

Location: Wynau

Current Time: Mar 1, 2015 at 10:48:28 PM

Latest Report: Mar 1, 2015 at 9:00 PM


Visibility: N/A

Pressure: 29.88 "Hg

Humidity: 97%

Dew point: 44 °F

Location of OltenLocation

Historic Weather in Olten — Graph

°F

Olten temperature yesterday

Maximum temperature yesterday: 42 °F (at 4:00 PM)
Minimum temperature yesterday: 29 °F (at 11:00 PM)
Average temperature yesterday: 36 °F

Past Weeks' High & Low Weather Summary

 TemperatureHumidityPressure
High50 °F (Feb 20, 4:00 PM)100% (Feb 20, 5:00 AM)30.73 "Hg (Feb 20, 5:00 AM)
Low23 °F (Feb 20, 7:00 AM)38% (Feb 26, 4:00 PM)29.62 "Hg (Feb 21, 10:00 AM)
Average34 °F87%30.09 "Hg
* Reported Feb 14 9:00 PM — Mar 1 9:00 PM, Olten, Weather by CustomWeather, © 2015

Note: Actual official high and low records may vary slightly from our data, if they occured in-between our weather recording intervals... More about our weather records

Advertising

Olten weather history for previous 24 hours

 ConditionsComfort  
Time TempWeatherWind HumidityBarometerVisibility
9:00 PM
Sun, Mar 1
45 °FCool.5 mph97%29.88 "HgN/A
8:00 PM45 °FCool.3 mph96%29.90 "HgN/A
7:00 PM45 °FCool.5 mph95%29.91 "HgN/A
6:00 PM45 °FCool.9 mph96%29.90 "HgN/A
5:00 PM44 °FQuite cool.7 mph96%29.91 "HgN/A
4:00 PM44 °FQuite cool.7 mph96%29.91 "HgN/A
3:00 PM44 °FQuite cool.9 mph95%29.92 "HgN/A
2:00 PM44 °FQuite cool.13 mph91%29.93 "HgN/A
1:00 PM43 °FQuite cool.12 mph92%29.94 "HgN/A
12:00 PM41 °FQuite cool.10 mph92%29.98 "HgN/A
11:00 AM40 °FQuite cool.12 mph93%29.98 "HgN/A
10:00 AM37 °FChilly.12 mph93%30.00 "HgN/A
9:00 AM36 °FChilly.13 mph93%30.01 "HgN/A
8:00 AM35 °FChilly.10 mph93%30.00 "HgN/A
7:00 AM34 °FChilly.7 mph94%30.00 "HgN/A
6:00 AM34 °FChilly.9 mph93%30.01 "HgN/A
5:00 AM36 °FChilly.8 mph79%30.00 "HgN/A
3:00 AM33 °FChilly.3 mph89%30.02 "HgN/A
2:00 AM28 °FChilly.1 mph100%30.07 "HgN/A
1:00 AM28 °FChilly.2 mph100%30.09 "HgN/A
12:00 AM29 °FChilly.1 mph100%30.10 "HgN/A
11:00 PM
Sat, Feb 28
29 °FChilly.1 mph100%30.12 "HgN/A
10:00 PM29 °FChilly.1 mph96%30.14 "HgN/A
Weather by CustomWeather, © 2015

See weather overviewHow to use our weather pages